Location: Bamazo
(6.7448°N, 10.8189°W)
Time: 01:20:26
(UTC+00:00)

ARIANE 5 R/B - Pass Details

Date: 18 September 2020
Orbit: 248 x 31078 km, 5.9° (Epoch: 21 October)

Event Time Altitude Azimuth Distance (km) Brightness Sun altitude
Rises 18:52:07 0° 265° (W) 15,711 11.8 -3.5°
Reaches altitude 10° 19:14:54 10° 264° (W) 8,604 9.5 -9.2°
Maximum altitude 19:33:24 76° 180° (S) 1,002 3.0 -13.8°
Enters shadow 19:35:48 23° 97° (E) 1,340 3.1 -14.4°
